UAL1182 VHHH-VTBS

Flight info

Callsign UAL1182
Flight time 2h 22m
Altitude 38000
Route PECAN3A PECAN V10 SIKOU/K0895S1160 A202 ASSAD/K0895F380 A202 VILAO/N0483F380 A202 RAMEI W42 PAKRI Y13 RUKSA EASTE1C
Aircraft A346/H-SDE3FGHIRWY/S

Departure

Time 2026-05-04 11:51
Airport Hong Kong International Airport (VHHH)

Arrival

Time 2026-05-04 14:13
Airport Suvarnabhumi Airport (VTBS)
Time Latitude Longitude Altitude Speed Heading
2026-05-04 11:24 22.31089 113.91836 45 ft 0 kts 251°
2026-05-04 11:39 22.31090 113.91838 45 ft 2 kts 251°
2026-05-04 11:40 22.31139 113.91908 45 ft 0 kts 167°
2026-05-04 11:43 22.31136 113.91909 45 ft 2 kts 166°
2026-05-04 11:43 22.31104 113.91921 45 ft 7 kts 150°
2026-05-04 11:43 22.31079 113.91952 45 ft 4 kts 114°
2026-05-04 11:43 22.31056 113.92001 44 ft 10 kts 124°
2026-05-04 11:44 22.30991 113.92055 45 ft 13 kts 155°
2026-05-04 11:44 22.30910 113.92087 45 ft 9 kts 161°
2026-05-04 11:44 22.30835 113.92115 45 ft 13 kts 161°
2026-05-04 11:44 22.30748 113.92148 45 ft 11 kts 160°
2026-05-04 11:45 22.30686 113.92148 45 ft 7 kts 211°
2026-05-04 11:45 22.30647 113.92097 45 ft 11 kts 238°
2026-05-04 11:45 22.30608 113.92004 45 ft 15 kts 250°
2026-05-04 11:45 22.30568 113.91881 45 ft 19 kts 251°
2026-05-04 11:46 22.30522 113.91731 45 ft 22 kts 252°
2026-05-04 11:46 22.30468 113.91558 45 ft 26 kts 250°
2026-05-04 11:46 22.30405 113.91364 45 ft 28 kts 251°
2026-05-04 11:46 22.30337 113.91155 45 ft 30 kts 251°
2026-05-04 11:47 22.30270 113.90942 45 ft 29 kts 251°
2026-05-04 11:47 22.30201 113.90726 45 ft 30 kts 251°
2026-05-04 11:47 22.30128 113.90507 45 ft 31 kts 251°
2026-05-04 11:47 22.30057 113.90282 45 ft 32 kts 251°
2026-05-04 11:48 22.30001 113.90112 44 ft 18 kts 250°
2026-05-04 11:48 22.29957 113.89980 45 ft 19 kts 250°
2026-05-04 11:48 22.29915 113.89844 45 ft 15 kts 252°
2026-05-04 11:48 22.29882 113.89769 45 ft 2 kts 224°
2026-05-04 11:49 22.29860 113.89754 44 ft 4 kts 204°
2026-05-04 11:49 22.29815 113.89748 45 ft 6 kts 175°
2026-05-04 11:49 22.29734 113.89769 45 ft 16 kts 162°
2026-05-04 11:49 22.29666 113.89834 45 ft 13 kts 109°
2026-05-04 11:50 22.29658 113.89884 45 ft 0 kts 84°
2026-05-04 11:50 22.29718 113.90108 45 ft 74 kts 70°
2026-05-04 11:50 22.29951 113.90824 45 ft 143 kts 70°
2026-05-04 11:50 22.30338 113.92035 302 ft 182 kts 71°
2026-05-04 11:51 22.30729 113.93274 1170 ft 178 kts 72°
2026-05-04 11:51 22.31133 113.94526 2060 ft 180 kts 72°
2026-05-04 11:51 22.31563 113.95853 2741 ft 197 kts 72°
2026-05-04 11:51 22.32032 113.97305 3437 ft 214 kts 72°
2026-05-04 11:52 22.32522 113.98832 4292 ft 222 kts 71°
2026-05-04 11:52 22.33031 114.00422 5103 ft 233 kts 71°
2026-05-04 11:52 22.33588 114.02158 5685 ft 256 kts 71°
2026-05-04 11:52 22.33893 114.04158 5993 ft 290 kts 95°
2026-05-04 11:53 22.33217 114.06331 6265 ft 322 kts 125°
2026-05-04 11:53 22.31561 114.07972 7105 ft 329 kts 153°
2026-05-04 11:53 22.29450 114.08744 8433 ft 315 kts 176°
2026-05-04 11:53 22.27328 114.08774 9782 ft 301 kts 185°
2026-05-04 11:55 22.11169 114.09453 14500 ft 367 kts 197°
2026-05-04 11:55 22.08641 114.08855 15225 ft 374 kts 195°
2026-05-04 11:56 22.06068 114.08373 15914 ft 381 kts 192°
2026-05-04 11:56 22.03393 114.07991 16606 ft 387 kts 191°
2026-05-04 11:56 22.00702 114.07687 17261 ft 393 kts 189°
2026-05-04 11:56 21.97965 114.07429 17905 ft 399 kts 188°
2026-05-04 11:57 21.95165 114.07194 18586 ft 403 kts 188°
2026-05-04 11:57 21.92332 114.06975 19290 ft 406 kts 188°
2026-05-04 11:57 21.89534 114.06769 19958 ft 410 kts 188°
2026-05-04 11:57 21.86654 114.06560 20623 ft 413 kts 188°
2026-05-04 11:58 21.83772 114.06353 21282 ft 416 kts 188°
2026-05-04 11:58 21.80877 114.06147 21938 ft 419 kts 188°
2026-05-04 11:58 21.77933 114.05939 22581 ft 422 kts 188°
2026-05-04 11:58 21.74996 114.05732 23204 ft 424 kts 188°
2026-05-04 11:59 21.72044 114.05524 23824 ft 427 kts 188°
2026-05-04 11:59 21.69072 114.05314 24421 ft 431 kts 188°
2026-05-04 11:59 21.66055 114.05102 25000 ft 434 kts 188°
2026-05-04 11:59 21.63038 114.04889 25590 ft 437 kts 188°
2026-05-04 12:00 21.60004 114.04677 26159 ft 440 kts 188°
2026-05-04 12:00 21.56892 114.04458 26699 ft 444 kts 188°
2026-05-04 12:00 21.53800 114.04241 27252 ft 447 kts 188°
2026-05-04 12:00 21.50692 114.04023 27795 ft 450 kts 188°
2026-05-04 12:01 21.47608 114.03668 28304 ft 449 kts 194°
2026-05-04 12:01 21.44581 114.02858 28857 ft 446 kts 202°
2026-05-04 12:02 21.29213 113.92144 32319 ft 434 kts 233°
2026-05-04 12:03 21.27475 113.89514 32985 ft 429 kts 241°
2026-05-04 12:03 21.26133 113.86697 33654 ft 425 kts 249°
2026-05-04 12:03 21.25179 113.83705 34299 ft 422 kts 256°
2026-05-04 12:03 21.24584 113.80646 34918 ft 420 kts 260°
2026-05-04 12:04 21.24060 113.77586 35559 ft 418 kts 260°
2026-05-04 12:04 21.23549 113.74551 36133 ft 417 kts 260°
2026-05-04 12:04 21.23041 113.71519 36613 ft 417 kts 261°
2026-05-04 12:04 21.22522 113.68428 37005 ft 419 kts 261°
2026-05-04 12:05 21.22008 113.65371 37356 ft 421 kts 261°
2026-05-04 12:05 21.21493 113.62310 37684 ft 423 kts 261°
2026-05-04 12:05 21.20967 113.59185 37993 ft 425 kts 261°
2026-05-04 12:05 21.20440 113.56062 38039 ft 427 kts 261°
2026-05-04 12:06 21.19386 113.49827 38049 ft 427 kts 261°
2026-05-04 12:06 21.18324 113.43550 38049 ft 428 kts 261°
2026-05-04 12:07 21.17263 113.37312 38040 ft 429 kts 261°
2026-05-04 12:07 21.16192 113.31021 38035 ft 429 kts 261°
2026-05-04 12:08 21.15121 113.24743 38032 ft 430 kts 261°
2026-05-04 12:08 21.14046 113.18456 38032 ft 430 kts 261°
2026-05-04 12:09 21.12963 113.12138 38101 ft 431 kts 261°
2026-05-04 12:09 21.11887 113.05874 38127 ft 431 kts 261°
2026-05-04 12:10 21.10803 112.99583 38131 ft 431 kts 261°
2026-05-04 12:10 21.09712 112.93259 38131 ft 431 kts 261°
2026-05-04 12:11 21.08625 112.86979 38132 ft 431 kts 261°
2026-05-04 12:11 21.07529 112.80660 38132 ft 431 kts 261°
2026-05-04 12:12 21.06437 112.74379 38133 ft 430 kts 261°
2026-05-04 12:12 21.05345 112.68111 38134 ft 430 kts 261°
2026-05-04 12:14 21.00939 112.42951 38136 ft 431 kts 261°
2026-05-04 12:15 20.99836 112.36687 38140 ft 432 kts 261°
2026-05-04 12:15 20.98717 112.30351 38140 ft 431 kts 261°
2026-05-04 12:16 20.97604 112.24067 38142 ft 431 kts 261°
2026-05-04 12:16 20.96491 112.17784 38141 ft 432 kts 261°
2026-05-04 12:17 20.95368 112.11468 38140 ft 431 kts 261°
2026-05-04 12:17 20.94251 112.05194 38142 ft 431 kts 261°
2026-05-04 12:18 20.93122 111.98872 38144 ft 431 kts 261°
2026-05-04 12:18 20.91995 111.92572 38140 ft 431 kts 261°
2026-05-04 12:19 20.90874 111.86314 38142 ft 431 kts 261°
2026-05-04 12:19 20.89745 111.80037 38138 ft 432 kts 261°
2026-05-04 12:20 20.88611 111.73734 38138 ft 432 kts 261°
2026-05-04 12:20 20.87470 111.67417 38139 ft 432 kts 261°
2026-05-04 12:21 20.86336 111.61139 38136 ft 432 kts 261°
2026-05-04 12:21 20.85193 111.54839 38138 ft 432 kts 260°
2026-05-04 12:22 20.83744 111.48592 38137 ft 434 kts 255°
2026-05-04 12:22 20.81807 111.42522 38142 ft 434 kts 253°
2026-05-04 12:23 20.79782 111.36463 38143 ft 434 kts 253°
2026-05-04 12:23 20.77739 111.30370 38145 ft 434 kts 252°
2026-05-04 12:24 20.75712 111.24333 38142 ft 434 kts 252°
2026-05-04 12:24 20.73673 111.18275 38143 ft 434 kts 252°
2026-05-04 12:25 20.71623 111.12188 38141 ft 435 kts 252°
2026-05-04 12:25 20.69583 111.06140 38139 ft 435 kts 252°
2026-05-04 12:26 20.67532 111.00064 38142 ft 435 kts 252°
2026-05-04 12:26 20.65492 110.94029 38138 ft 435 kts 252°
2026-05-04 12:27 20.63438 110.87951 38138 ft 435 kts 252°
2026-05-04 12:27 20.61403 110.81885 38138 ft 435 kts 252°
2026-05-04 12:28 20.59369 110.75826 38137 ft 435 kts 252°
2026-05-04 12:28 20.57320 110.69734 38138 ft 435 kts 252°
2026-05-04 12:29 20.55277 110.63670 38137 ft 435 kts 252°
2026-05-04 12:29 20.53185 110.57622 38133 ft 437 kts 250°
2026-05-04 12:30 20.50626 110.51762 38131 ft 438 kts 245°
2026-05-04 12:30 20.47505 110.46145 38131 ft 441 kts 239°
2026-05-04 12:31 20.43883 110.40900 38132 ft 443 kts 234°
2026-05-04 12:31 20.39994 110.35787 38130 ft 442 kts 234°
2026-05-04 12:32 20.34165 110.28146 38135 ft 443 kts 234°
2026-05-04 12:33 20.30289 110.23074 38132 ft 443 kts 234°
2026-05-04 12:33 20.26450 110.17974 38135 ft 443 kts 234°
2026-05-04 12:34 20.22608 110.12839 38132 ft 443 kts 234°
2026-05-04 12:34 20.18777 110.07727 38135 ft 442 kts 234°
2026-05-04 12:35 20.14941 110.02617 38130 ft 443 kts 234°
2026-05-04 12:35 20.11084 109.97484 38131 ft 443 kts 234°
2026-05-04 12:36 20.07250 109.92387 38131 ft 443 kts 234°
2026-05-04 12:36 20.03400 109.87273 38126 ft 443 kts 234°
2026-05-04 12:37 19.99530 109.82134 38129 ft 444 kts 234°
2026-05-04 12:37 19.95676 109.77022 38125 ft 443 kts 234°
2026-05-04 12:38 19.91836 109.71932 38126 ft 444 kts 234°
2026-05-04 12:38 19.87958 109.66799 38127 ft 444 kts 234°
2026-05-04 12:39 19.84088 109.61680 38129 ft 444 kts 234°
2026-05-04 12:39 19.80212 109.56557 38129 ft 445 kts 234°
2026-05-04 12:40 19.76353 109.51460 38129 ft 446 kts 234°
2026-05-04 12:40 19.72456 109.46318 38125 ft 445 kts 234°
2026-05-04 12:41 19.68571 109.41197 38124 ft 445 kts 234°
2026-05-04 12:41 19.64705 109.36101 38119 ft 445 kts 234°
2026-05-04 12:42 19.60820 109.30988 38121 ft 446 kts 234°
2026-05-04 12:42 19.56913 109.25847 38117 ft 447 kts 234°
2026-05-04 12:43 19.53012 109.20721 38117 ft 447 kts 234°
2026-05-04 12:43 19.49106 109.15627 38117 ft 447 kts 233°
2026-05-04 12:44 19.45165 109.10523 38121 ft 447 kts 234°
2026-05-04 12:44 19.41231 109.05428 38118 ft 446 kts 233°
2026-05-04 12:45 19.37297 109.00332 38113 ft 447 kts 233°
2026-05-04 12:45 19.33377 108.95257 38109 ft 447 kts 234°
2026-05-04 12:46 19.29445 108.90166 38104 ft 448 kts 234°
2026-05-04 12:46 19.25474 108.85036 38107 ft 448 kts 234°
2026-05-04 12:47 19.21533 108.79953 38101 ft 448 kts 233°
2026-05-04 12:47 19.17573 108.74845 38104 ft 449 kts 233°
2026-05-04 12:48 19.13608 108.69737 38102 ft 449 kts 233°
2026-05-04 12:48 19.09644 108.64634 38103 ft 449 kts 234°
2026-05-04 12:49 19.05685 108.59538 38102 ft 450 kts 234°
2026-05-04 12:49 19.01726 108.54446 38103 ft 450 kts 234°
2026-05-04 12:50 18.97739 108.49320 38104 ft 449 kts 234°
2026-05-04 12:50 18.93780 108.44239 38102 ft 449 kts 234°
2026-05-04 12:51 18.89818 108.39156 38112 ft 448 kts 234°
2026-05-04 12:51 18.85854 108.34075 38114 ft 449 kts 233°
2026-05-04 12:52 18.81888 108.28996 38102 ft 449 kts 233°
2026-05-04 12:52 18.77924 108.23921 38099 ft 450 kts 233°
2026-05-04 12:53 18.73950 108.18840 38098 ft 450 kts 233°
2026-05-04 12:53 18.69957 108.13738 38099 ft 450 kts 233°
2026-05-04 12:54 18.65973 108.08651 38098 ft 449 kts 233°
2026-05-04 12:54 18.62006 108.03591 38097 ft 450 kts 233°
2026-05-04 12:55 18.58014 107.98504 38095 ft 450 kts 233°
2026-05-04 12:55 18.54025 107.93423 38095 ft 450 kts 233°
2026-05-04 12:56 18.50052 107.88367 38095 ft 450 kts 233°
2026-05-04 12:56 18.46077 107.83313 38096 ft 449 kts 233°
2026-05-04 12:57 18.42090 107.78243 38096 ft 449 kts 233°
2026-05-04 12:57 18.38121 107.73200 38094 ft 448 kts 233°
2026-05-04 12:58 18.34233 107.68065 38094 ft 447 kts 237°
2026-05-04 12:58 18.30790 107.62610 38098 ft 447 kts 240°
2026-05-04 12:59 18.27469 107.57114 38098 ft 447 kts 240°
2026-05-04 12:59 18.24124 107.51579 38097 ft 448 kts 240°
2026-05-04 13:00 18.20787 107.46062 38101 ft 447 kts 240°
2026-05-04 13:00 18.17443 107.40542 38105 ft 448 kts 240°
2026-05-04 13:01 18.14103 107.35031 38106 ft 448 kts 240°
2026-05-04 13:01 18.10758 107.29515 38107 ft 447 kts 240°
2026-05-04 13:02 18.07413 107.24007 38105 ft 447 kts 240°
2026-05-04 13:02 18.04078 107.18528 38104 ft 448 kts 239°
2026-05-04 13:03 18.00721 107.13024 38105 ft 448 kts 239°
2026-05-04 13:03 17.97346 107.07491 38104 ft 448 kts 240°
2026-05-04 13:04 17.93993 107.01992 38104 ft 449 kts 240°
2026-05-04 13:04 17.90631 106.96484 38106 ft 449 kts 239°
2026-05-04 13:05 17.87251 106.90949 38105 ft 449 kts 240°
2026-05-04 13:05 17.83876 106.85400 38107 ft 449 kts 239°
2026-05-04 13:06 17.80513 106.79868 38109 ft 449 kts 240°
2026-05-04 13:06 17.77168 106.74367 38112 ft 449 kts 240°
2026-05-04 13:07 17.73805 106.68843 38109 ft 449 kts 240°
2026-05-04 13:07 17.70434 106.63309 38108 ft 449 kts 240°
2026-05-04 13:08 17.67064 106.57789 38107 ft 449 kts 239°
2026-05-04 13:08 17.63677 106.52268 38106 ft 449 kts 239°
2026-05-04 13:09 17.60316 106.46794 38109 ft 449 kts 239°
2026-05-04 13:09 17.56919 106.41260 38115 ft 450 kts 239°
2026-05-04 13:10 17.53543 106.35764 38122 ft 450 kts 239°
2026-05-04 13:10 17.50136 106.30223 38127 ft 451 kts 239°
2026-05-04 13:11 17.46733 106.24693 38136 ft 451 kts 239°
2026-05-04 13:11 17.43326 106.19158 38147 ft 451 kts 239°
2026-05-04 13:12 17.39927 106.13640 38154 ft 451 kts 239°
2026-05-04 13:12 17.36536 106.08140 38156 ft 450 kts 239°
2026-05-04 13:13 17.33181 106.02618 38147 ft 450 kts 239°
2026-05-04 13:13 17.29820 105.97061 38127 ft 450 kts 239°
2026-05-04 13:14 17.26459 105.91513 38117 ft 451 kts 239°
2026-05-04 13:14 17.23101 105.85976 38112 ft 451 kts 240°
2026-05-04 13:15 17.19740 105.80439 38111 ft 452 kts 240°
2026-05-04 13:15 17.16378 105.74902 38108 ft 452 kts 239°
2026-05-04 13:16 17.13005 105.69354 38097 ft 452 kts 239°
2026-05-04 13:16 17.09630 105.63807 38098 ft 452 kts 239°
2026-05-04 13:17 17.06264 105.58279 38094 ft 452 kts 239°
2026-05-04 13:17 17.02875 105.52720 38088 ft 452 kts 240°
2026-05-04 13:18 16.99494 105.47176 38085 ft 452 kts 240°
2026-05-04 13:18 16.96109 105.41630 38082 ft 452 kts 240°
2026-05-04 13:19 16.92751 105.36131 38074 ft 452 kts 240°
2026-05-04 13:19 16.89359 105.30578 38066 ft 452 kts 239°
2026-05-04 13:20 16.85975 105.25047 38066 ft 453 kts 239°
2026-05-04 13:20 16.82560 105.19483 38065 ft 453 kts 239°
2026-05-04 13:21 16.79155 105.13943 38064 ft 454 kts 239°
2026-05-04 13:21 16.75746 105.08398 38060 ft 453 kts 239°
2026-05-04 13:22 16.72341 105.02860 38056 ft 453 kts 239°
2026-05-04 13:22 16.68936 104.97325 38060 ft 453 kts 239°
2026-05-04 13:23 16.65537 104.91803 38060 ft 454 kts 239°
2026-05-04 13:23 16.62135 104.86281 38055 ft 454 kts 239°
2026-05-04 13:24 16.58726 104.80755 38057 ft 454 kts 239°
2026-05-04 13:24 16.55024 104.75429 38052 ft 456 kts 233°
2026-05-04 13:25 16.48723 104.67965 38049 ft 456 kts 231°
2026-05-04 13:25 16.44487 104.63037 38047 ft 456 kts 231°
2026-05-04 13:26 16.40264 104.58127 38046 ft 457 kts 231°
2026-05-04 13:26 16.36020 104.53192 38043 ft 457 kts 231°
2026-05-04 13:27 16.31775 104.48261 38037 ft 456 kts 231°
2026-05-04 13:27 16.27535 104.43338 38031 ft 456 kts 231°
2026-05-04 13:28 16.23257 104.38424 38027 ft 457 kts 230°
2026-05-04 13:28 16.18969 104.33531 38027 ft 457 kts 230°
2026-05-04 13:29 16.14675 104.28629 38032 ft 457 kts 230°
2026-05-04 13:29 16.10378 104.23719 38036 ft 457 kts 230°
2026-05-04 13:30 16.06084 104.18818 38032 ft 457 kts 230°
2026-05-04 13:30 16.01830 104.13890 38026 ft 456 kts 231°
2026-05-04 13:31 15.97595 104.08945 38023 ft 457 kts 231°
2026-05-04 13:31 15.93387 104.04037 38019 ft 457 kts 231°
2026-05-04 13:32 15.89142 103.99091 38018 ft 457 kts 231°
2026-05-04 13:32 15.84912 103.94164 38016 ft 456 kts 231°
2026-05-04 13:33 15.80672 103.89232 38018 ft 456 kts 231°
2026-05-04 13:33 15.76426 103.84297 38022 ft 456 kts 231°
2026-05-04 13:34 15.72224 103.79417 38025 ft 455 kts 231°
2026-05-04 13:34 15.68008 103.74526 38022 ft 455 kts 231°
2026-05-04 13:35 15.61661 103.67164 38023 ft 455 kts 231°
2026-05-04 13:36 15.57433 103.62264 38019 ft 454 kts 231°
2026-05-04 13:36 15.53215 103.57379 38013 ft 454 kts 231°
2026-05-04 13:37 15.49018 103.52522 38011 ft 453 kts 231°
2026-05-04 13:37 15.44816 103.47662 38010 ft 453 kts 231°
2026-05-04 13:38 15.40613 103.42804 38010 ft 453 kts 231°
2026-05-04 13:38 15.36400 103.37936 38011 ft 453 kts 231°
2026-05-04 13:39 15.32176 103.33061 38015 ft 453 kts 230°
2026-05-04 13:39 15.27961 103.28199 38017 ft 451 kts 230°
2026-05-04 13:40 15.23768 103.23364 38020 ft 451 kts 230°
2026-05-04 13:40 15.19575 103.18533 38021 ft 451 kts 230°
2026-05-04 13:41 15.15390 103.13710 38022 ft 451 kts 230°
2026-05-04 13:41 15.11205 103.08895 37920 ft 451 kts 231°
2026-05-04 13:42 15.06812 103.04228 37324 ft 449 kts 225°
2026-05-04 13:42 15.04481 103.02105 37033 ft 447 kts 222°
2026-05-04 13:42 15.02078 103.00131 36740 ft 445 kts 219°
2026-05-04 13:42 14.99517 102.98241 36441 ft 446 kts 217°
2026-05-04 13:43 14.96923 102.96526 36154 ft 448 kts 214°
2026-05-04 13:43 14.94216 102.94846 35859 ft 448 kts 215°
2026-05-04 13:43 14.91723 102.92995 35571 ft 446 kts 222°
2026-05-04 13:43 14.89424 102.90776 35277 ft 445 kts 229°
2026-05-04 13:44 14.87464 102.88335 34989 ft 443 kts 236°
2026-05-04 13:44 14.85805 102.85641 34700 ft 442 kts 243°
2026-05-04 13:44 14.84495 102.82773 34412 ft 442 kts 250°
2026-05-04 13:44 14.83489 102.79774 34127 ft 442 kts 253°
2026-05-04 13:45 14.82565 102.76777 33844 ft 443 kts 253°
2026-05-04 13:45 14.81633 102.73718 33556 ft 444 kts 254°
2026-05-04 13:45 14.80711 102.70692 33273 ft 446 kts 254°
2026-05-04 13:45 14.79774 102.67620 32986 ft 447 kts 253°
2026-05-04 13:46 14.78842 102.64575 32702 ft 449 kts 253°
2026-05-04 13:46 14.77893 102.61481 32428 ft 450 kts 253°
2026-05-04 13:46 14.76948 102.58405 32174 ft 451 kts 253°
2026-05-04 13:46 14.75993 102.55297 31919 ft 452 kts 253°
2026-05-04 13:47 14.75042 102.52205 31664 ft 453 kts 253°
2026-05-04 13:47 14.74094 102.49124 31410 ft 453 kts 253°
2026-05-04 13:47 14.73134 102.46008 31155 ft 454 kts 253°
2026-05-04 13:47 14.72180 102.42916 30901 ft 455 kts 253°
2026-05-04 13:48 14.71224 102.39821 30526 ft 454 kts 253°
2026-05-04 13:48 14.70266 102.36713 29881 ft 453 kts 253°
2026-05-04 13:48 14.69304 102.33599 28990 ft 457 kts 253°
2026-05-04 13:48 14.68337 102.30469 28105 ft 461 kts 253°
2026-05-04 13:49 14.67369 102.27333 27501 ft 457 kts 253°
2026-05-04 13:49 14.66415 102.24250 27018 ft 452 kts 253°
2026-05-04 13:49 14.65453 102.21145 26536 ft 451 kts 253°
2026-05-04 13:49 14.64505 102.18082 26060 ft 449 kts 253°
2026-05-04 13:50 14.63559 102.15028 25584 ft 447 kts 253°
2026-05-04 13:50 14.62614 102.11978 25105 ft 445 kts 253°
2026-05-04 13:50 14.61681 102.08969 24629 ft 442 kts 253°
2026-05-04 13:50 14.60745 102.05951 24141 ft 441 kts 252°
2026-05-04 13:51 14.59816 102.02953 23467 ft 435 kts 252°
2026-05-04 13:51 14.58898 101.99998 22953 ft 434 kts 253°
2026-05-04 13:51 14.57978 101.97040 22525 ft 435 kts 253°
2026-05-04 13:51 14.57063 101.94096 22007 ft 431 kts 252°
2026-05-04 13:52 14.54963 101.88378 20985 ft 425 kts 248°
2026-05-04 13:52 14.53843 101.85578 20474 ft 422 kts 248°
2026-05-04 13:52 14.52717 101.82774 19960 ft 420 kts 248°
2026-05-04 13:53 14.51605 101.80002 19444 ft 418 kts 248°
2026-05-04 13:53 14.50503 101.77251 18926 ft 416 kts 248°
2026-05-04 13:53 14.49400 101.74502 18418 ft 414 kts 248°
2026-05-04 13:54 14.47212 101.69041 17399 ft 410 kts 248°
2026-05-04 13:54 14.46115 101.66307 16872 ft 408 kts 248°
2026-05-04 13:54 14.43979 101.60981 15847 ft 403 kts 248°
2026-05-04 13:55 14.42910 101.58318 15323 ft 400 kts 248°
2026-05-04 13:55 14.40788 101.53031 14288 ft 395 kts 248°
2026-05-04 13:55 14.39746 101.50439 13770 ft 392 kts 248°
2026-05-04 13:56 14.38712 101.47869 13255 ft 390 kts 248°
2026-05-04 13:56 14.37677 101.45294 12735 ft 387 kts 248°
2026-05-04 13:56 14.35630 101.40205 11703 ft 382 kts 248°
2026-05-04 13:57 14.34619 101.37692 11217 ft 378 kts 248°
2026-05-04 13:57 14.33620 101.35211 10973 ft 377 kts 248°
2026-05-04 13:58 14.30128 101.28093 10924 ft 354 kts 229°
2026-05-04 13:58 14.26554 101.24786 10920 ft 343 kts 219°
2026-05-04 13:58 14.24687 101.23229 10913 ft 343 kts 219°
2026-05-04 13:59 14.22834 101.21677 10905 ft 343 kts 219°
2026-05-04 13:59 14.20965 101.20102 10904 ft 343 kts 219°
2026-05-04 13:59 14.17272 101.16972 10894 ft 343 kts 219°
2026-05-04 14:00 14.15431 101.15406 10898 ft 343 kts 219°
2026-05-04 14:00 14.11745 101.12268 10899 ft 342 kts 219°
2026-05-04 14:00 14.09950 101.10741 10886 ft 331 kts 219°
2026-05-04 14:01 14.08216 101.09265 10885 ft 315 kts 219°
2026-05-04 14:01 14.06500 101.07878 10884 ft 305 kts 212°
2026-05-04 14:01 14.02769 101.06312 10692 ft 283 kts 194°
2026-05-04 14:02 14.00878 101.05809 10454 ft 278 kts 193°
2026-05-04 14:02 13.99004 101.05319 10216 ft 274 kts 193°
2026-05-04 14:02 13.97159 101.04827 9978 ft 270 kts 194°
2026-05-04 14:02 13.95364 101.04341 9833 ft 262 kts 194°
2026-05-04 14:03 13.93612 101.03863 9708 ft 253 kts 194°
2026-05-04 14:03 13.91931 101.03402 9590 ft 250 kts 194°
2026-05-04 14:03 13.90250 101.02940 9473 ft 250 kts 194°
2026-05-04 14:03 13.88530 101.02468 9070 ft 253 kts 194°
2026-05-04 14:04 13.85118 101.01490 7338 ft 263 kts 203°
2026-05-04 14:04 13.83658 101.00383 6494 ft 268 kts 232°
2026-05-04 14:04 13.82888 100.98654 5706 ft 266 kts 263°
2026-05-04 14:05 13.83462 100.95164 5012 ft 227 kts 288°
2026-05-04 14:05 13.83925 100.93698 4965 ft 200 kts 289°
2026-05-04 14:05 13.84354 100.92364 4984 ft 195 kts 289°
2026-05-04 14:06 13.84787 100.91025 5002 ft 195 kts 289°
2026-05-04 14:06 13.85209 100.89714 4989 ft 189 kts 289°
2026-05-04 14:06 13.85609 100.88467 4971 ft 178 kts 289°
2026-05-04 14:06 13.85993 100.87266 4735 ft 179 kts 289°
2026-05-04 14:07 13.86395 100.86031 4183 ft 185 kts 289°
2026-05-04 14:07 13.86813 100.84774 3599 ft 191 kts 289°
2026-05-04 14:07 13.87255 100.83472 3006 ft 196 kts 289°
2026-05-04 14:07 13.87416 100.82094 2407 ft 196 kts 255°
2026-05-04 14:08 13.86733 100.80982 2050 ft 177 kts 212°
2026-05-04 14:08 13.85697 100.80454 1982 ft 155 kts 195°
2026-05-04 14:08 13.84675 100.80148 1987 ft 152 kts 190°
2026-05-04 14:08 13.83644 100.79886 1995 ft 152 kts 189°
2026-05-04 14:09 13.81568 100.79363 1995 ft 152 kts 190°
2026-05-04 14:09 13.80535 100.79094 1997 ft 152 kts 190°
2026-05-04 14:10 13.78452 100.78546 1820 ft 152 kts 190°
2026-05-04 14:10 13.77429 100.78276 1627 ft 152 kts 190°
2026-05-04 14:10 13.76394 100.78003 1431 ft 151 kts 191°
2026-05-04 14:10 13.75380 100.77736 1239 ft 151 kts 191°
2026-05-04 14:11 13.74362 100.77469 1042 ft 151 kts 192°
2026-05-04 14:11 13.72332 100.76935 658 ft 150 kts 193°
2026-05-04 14:11 13.71307 100.76663 466 ft 150 kts 194°
2026-05-04 14:12 13.70310 100.76386 259 ft 149 kts 191°
2026-05-04 14:12 13.69276 100.76131 96 ft 155 kts 194°
2026-05-04 14:12 13.67512 100.75668 21 ft 75 kts 191°
2026-05-04 14:13 13.67226 100.75561 21 ft 12 kts 214°
2026-05-04 14:13 13.67205 100.75546 21 ft 13 kts 215°
2026-05-04 14:13 13.67153 100.75505 22 ft 5 kts 219°
2026-05-04 14:13 13.67140 100.75494 22 ft 0 kts 220°
2026-05-04 14:14 13.67102 100.75453 22 ft 13 kts 235°
2026-05-04 14:14 13.67097 100.75438 22 ft 0 kts 272°
2026-05-04 14:14 13.67097 100.75434 23 ft 5 kts 272°
2026-05-04 14:15 13.67333 100.75425 22 ft 34 kts 15°
2026-05-04 14:15 13.67713 100.75517 21 ft 23 kts 347°
2026-05-04 14:16 13.67770 100.75455 21 ft 1 kts 328°
2026-05-04 14:16 13.67799 100.75451 21 ft 7 kts 353°
2026-05-04 14:17 13.67893 100.75368 22 ft 11 kts 292°
2026-05-04 14:17 13.67919 100.75280 22 ft 14 kts 284°
2026-05-04 14:17 13.67994 100.75158 23 ft 6 kts
2026-05-04 14:18 13.68024 100.75161 24 ft 0 kts
2026-05-04 14:18 13.68041 100.75164 24 ft 0 kts 11°